GW3925 Weather Reports


time (UTC)temp
C
wind
direction
speed
KPH
gust
KPH
rain 1hr
cm
rain 24hr
cm
rain mn
cm
humidity
%
barometer
mb
20260505124540 11 127 0.0 3.2 0.00 0.00 0.00 92 1015.4
20260505123048 11 185 1.6 3.2 0.00 0.00 0.00 92 1015.4
20260505121543 11 158 0.0 3.2 0.00 0.00 0.00 92 1015.2
20260505120053 11 168 0.0 1.6 0.00 0.00 0.00 92 1015.3
20260505114543 11 0 0.0 1.6 0.00 0.00 0.00 92 1015.3
20260505113051 11 0 0.0 4.8 0.00 0.00 0.00 92 1015.2
20260505111538 11 162 1.6 8.0 0.00 0.00 0.00 92 1015.2
20260505101547 11 0 0.0 3.2 0.00 0.00 0.00 93 1015.1
20260505100045 11 214 4.8 6.4 0.00 0.00 0.00 92 1015.2
20260505094546 11 0 0.0 8.0 0.00 0.00 0.00 92 1015.2
20260505093043 11 198 3.2 6.4 0.00 0.00 0.00 92 1015.0
20260505091549 11 207 0.0 3.2 0.00 0.00 0.00 92 1014.9
20260505090104 11 209 0.0 4.8 0.00 0.00 0.00 91 1015.0
20260505084559 11 180 1.6 6.4 0.00 0.00 0.00 92 1014.9
20260505083059 11 147 1.6 4.8 0.00 0.00 0.00 91 1014.7
20260505081556 11 0 0.0 8.0 0.00 0.00 0.00 91 1014.7
20260505080052 11 161 3.2 8.0 0.00 0.00 0.00 91 1014.9
20260505074541 11 133 3.2 12.9 0.00 0.00 0.00 91 1014.9
20260505073049 11 0 3.2 6.4 0.00 0.00 0.00 91 1014.9
20260505071545 11 97 1.6 9.7 0.00 0.00 0.00 90 1015.0
20260505070050 12 131 0.0 11.3 0.00 0.00 0.00 90 1014.9
20260505064542 11 181 4.8 9.7 0.00 0.00 0.00 90 1015.0
20260505063049 12 167 3.2 9.7 0.00 0.00 0.00 90 1015.0
20260505061539 12 150 1.6 6.4 0.00 0.00 0.00 90 1015.0
20260505060056 12 285 3.2 9.7 0.00 0.00 0.00 89 1015.1
20260505054537 12 160 4.8 11.3 0.00 0.00 0.00 89 1014.9
20260505053044 12 172 4.8 11.3 0.00 0.00 0.00 88 1015.0
20260505051543 12 136 1.6 14.5 0.00 0.00 0.00 87 1015.2
20260505041552 12 162 4.8 12.9 0.00 0.00 0.00 86 1014.6
20260505040046 12 123 3.2 16.1 0.00 0.00 0.00 86 1014.6
20260505034546 12 155 6.4 12.9 0.00 0.00 0.00 85 1014.4
20260505033038 12 302 1.6 11.3 0.00 0.00 0.00 85 1014.3
20260505031536 12 124 6.4 17.7 0.00 0.00 0.00 85 1013.8
20260505030056 12 0 3.2 11.3 0.00 0.00 0.00 85 1014.0
20260505024545 12 146 8.0 17.7 0.00 0.00 0.00 85 1014.0
20260505023042 12 155 1.6 16.1 0.00 0.00 0.00 84 1014.0
20260505021538 13 175 4.8 17.7 0.00 0.00 0.00 83 1013.8
20260505020048 13 160 4.8 11.3 0.00 0.00 0.00 81 1013.8
20260505014603 13 117 4.8 16.1 0.00 0.00 0.00 80 1013.9
20260505013050 13 328 4.8 17.7 0.00 0.00 0.00 79 1013.8
20260505011544 14 117 6.4 19.3 0.00 0.00 0.00 78 1013.9
20260505010053 14 145 8.0 19.3 0.00 0.00 0.00 78 1014.2
20260505004548 14 182 6.4 19.3 0.00 0.00 0.00 78 1014.2
20260505003053 15 122 9.7 25.7 0.00 0.00 0.00 76 1014.3
20260505001541 15 58 6.4 25.7 0.00 0.00 0.00 76 1014.3
20260505000043 16 184 9.7 20.9 0.00 0.00 0.00 72 1014.2
20260504234545 17 141 6.4 19.3 0.00 0.00 0.00 73 1014.1
20260504233039 16 325 6.4 19.3 0.00 0.00 0.00 72 1014.1
20260504231539 16 137 3.2 17.7 0.00 0.00 0.00 74 1014.3
20260504230046 16 177 1.6 16.1 0.00 0.00 0.00 75 1014.3
20260504224543 16 186 6.4 22.5 0.00 0.00 0.00 77 1014.4
20260504223058 16 140 6.4 19.3 0.00 0.00 0.00 75 1014.5
20260504221540 16 181 9.7 17.7 0.00 0.00 0.00 74 1014.6
20260504220040 16 198 6.4 20.9 0.00 0.00 0.00 74 1014.7
20260504214538 16 79 8.0 20.9 0.00 0.00 0.00 76 1014.7
20260504213044 16 129 8.0 19.3 0.00 0.00 0.00 74 1014.7
20260504211615 16 141 8.0 17.7 0.00 0.00 0.00 74 1014.9
20260504210046 15 186 9.7 17.7 0.00 0.00 0.00 77 1015.0
20260504204539 16 244 3.2 16.1 0.00 0.00 0.00 77 1015.1
20260504203049 16 117 8.0 24.1 0.00 0.00 0.00 76 1015.1
20260504201538 15 160 8.0 19.3 0.00 0.00 0.00 78 1014.9
20260504200043 15 145 9.7 17.7 0.00 0.00 0.00 77 1014.9
20260504194549 15 131 3.2 17.7 0.00 0.00 0.00 78 1014.9
20260504193041 15 146 9.7 19.3 0.00 0.00 0.00 77 1014.8
20260504191546 15 182 8.0 16.1 0.00 0.00 0.00 78 1014.8
20260504184550 13 198 8.0 17.7 0.00 0.00 0.00 82 1014.8
20260504183042 13 141 11.3 19.3 0.00 0.00 0.00 81 1014.8
20260504181538 13 198 6.4 17.7 0.00 0.00 0.00 82 1014.9
20260504180039 13 174 9.7 16.1 0.00 0.00 0.00 82 1014.8
20260504174543 14 158 8.0 12.9 0.00 0.00 0.00 81 1014.6
20260504173050 14 112 3.2 11.3 0.00 0.00 0.00 82 1014.6
20260504171544 15 171 3.2 9.7 0.00 0.00 0.00 80 1014.6